Home > Weather > Lancaster > Past weeks

Flag for USA Weather for the Past 2 Weeks in Lancaster, California, USA

Now
66 °F

Scattered clouds.


Feels Like: 66 °F
Forecast: 49 / 64 °F
Wind: 21 mph from Southwest

Location: Lancaster / Fox Field

Current Time: May 6, 2016 at 2:26:06 PM

Latest Report: May 6, 2016 at 1:56 PM


Visibility: 10 mi

Pressure: 29.82 "Hg (27.41 "Hg at 718m altitude)

Humidity: 37%

Dew Point: 39 °F

Location of LancasterLocation

Historic Weather in Lancaster — Graph

°F

Lancaster Temperature Yesterday

Maximum temperature yesterday: 66 °F (at 11:56 AM)
Minimum temperature yesterday: 51 °F (at 4:56 AM)
Average temperature yesterday: 57 °F

High & Low Weather Summary for the Past Weeks

 TemperatureHumidityPressure
High86 °F (May 3, 3:56 PM)77% (May 5, 10:56 PM)30.09 "Hg (May 5, 10:56 PM)
Low45 °F (Apr 25, 4:56 AM)5% (Apr 21, 2:56 PM)29.71 "Hg (Apr 27, 5:56 PM)
Average62 °F41%29.89 "Hg
* Reported Apr 21 12:56 PM — May 6 12:56 PM, Lancaster, Weather by CustomWeather, © 2016

Note: Actual official high and low records may vary slightly from our data, if they occured in-between our weather recording intervals... More about our weather records

Advertising

Lancaster Weather History for the Previous 24 Hours

Scroll right to see more
 ConditionsComfort  
Time TempWeatherWind HumidityBarometerVisibility
12:56 PM
Fri, May 6
65 °FPassing clouds.16 mph40%29.83 "Hg10 mi
11:56 AM65 °FPassing clouds.15 mph40%29.85 "Hg10 mi
10:56 AM63 °FSunny.16 mph43%29.84 "Hg10 mi
9:56 AM60 °FBroken clouds.17 mph49%29.84 "Hg10 mi
8:56 AM58 °FPassing clouds.15 mph56%29.84 "Hg10 mi
7:56 AM55 °FSunny.13 mph62%29.84 "Hg10 mi
6:56 AM52 °FScattered clouds.13 mph69%29.83 "Hg10 mi
5:56 AM49 °FClear.12 mph77%29.82 "Hg10 mi
4:56 AM49 °FClear.12 mph77%29.80 "Hg10 mi
3:56 AM51 °FPassing clouds.12 mph74%29.80 "Hg10 mi
2:56 AM51 °FPassing clouds.14 mph74%29.81 "Hg10 mi
1:56 AM50 °FClear.16 mph77%29.83 "Hg10 mi
12:56 AM50 °FClear.14 mph77%29.83 "Hg10 mi
11:56 PM
Thu, May 5
51 °FClear.18 mph77%29.84 "Hg10 mi
10:56 PM51 °FClear.16 mph77%29.83 "Hg10 mi
9:56 PM53 °FPassing clouds.14 mph72%29.84 "Hg10 mi
8:56 PM53 °FClear.15 mph72%29.83 "Hg10 mi
7:56 PM54 °FSunny.17 mph69%29.82 "Hg10 mi
6:56 PM57 °FSunny.20 mph60%29.81 "Hg10 mi
5:56 PM59 °FSunny.18 mph56%29.83 "Hg10 mi
4:56 PM60 °FSunny.23 mph56%29.83 "Hg10 mi
3:56 PM61 °FSunny.25 mph54%29.84 "Hg10 mi
2:56 PM63 °FSunny.26 mph50%29.85 "Hg10 mi
Weather by CustomWeather, © 2016

See weather overviewHow to use our weather pages